�������l�o���
Date,Time,MP-1(��Sv/h),MP-2(��Sv/h),MP-3(��Sv/h),MP-4(��Sv/h),MP-5(��Sv/h),MP-6(��Sv/h),MP-7(��Sv/h),MP-8(��Sv/h),����,����(m/s),���J
2022/05/17,00:00,0.542,0.800,0.524,0.981,0.690,0.340,0.577,0.548,�k�k��,5.7,�L
2022/05/17,00:10,0.543,0.802,0.525,0.979,0.691,0.339,0.579,0.548,�k�k��,6.7,�L
2022/05/17,00:20,0.543,0.800,0.525,0.979,0.690,0.338,0.578,0.548,�k�k��,6.9,�L
2022/05/17,00:30,0.543,0.802,0.525,0.980,0.690,0.339,0.577,0.546,�k�k��,5.5,�L
2022/05/17,00:40,0.543,0.801,0.524,0.981,0.690,0.339,0.578,0.548,�k�k��,6.1,�L
2022/05/17,00:50,0.542,0.801,0.525,0.978,0.690,0.340,0.577,0.546,�k�k��,6.6,�L
2022/05/17,01:00,0.541,0.798,0.523,0.977,0.687,0.339,0.575,0.546,�k�k��,6.6,�L
2022/05/17,01:10,0.538,0.798,0.522,0.971,0.684,0.338,0.574,0.546,�k��,7.0,�L
2022/05/17,01:20,0.540,0.794,0.523,0.969,0.683,0.340,0.575,0.545,�k��,7.2,�L
2022/05/17,01:30,0.540,0.793,0.524,0.971,0.682,0.337,0.574,0.545,�k�k��,7.0,�L
2022/05/17,01:40,0.540,0.790,0.523,0.968,0.683,0.339,0.573,0.544,�k�k��,6.4,�L
2022/05/17,01:50,0.540,0.791,0.525,0.969,0.681,0.340,0.574,0.544,�k�k��,6.9,�L
2022/05/17,02:00,0.541,0.794,0.522,0.967,0.683,0.338,0.574,0.546,�k�k��,6.5,�L
2022/05/17,02:10,0.541,0.794,0.525,0.971,0.684,0.341,0.575,0.546,�k�k��,7.3,�L
2022/05/17,02:20,0.542,0.796,0.524,0.975,0.683,0.338,0.575,0.547,�k�k��,6.3,�L
2022/05/17,02:30,0.542,0.794,0.522,0.974,0.683,0.338,0.575,0.547,�k�k��,6.2,�L
2022/05/17,02:40,0.541,0.796,0.524,0.974,0.683,0.339,0.574,0.547,�k�k��,5.9,�L
2022/05/17,02:50,0.542,0.797,0.524,0.971,0.681,0.337,0.577,0.548,�k�k��,5.6,�L
2022/05/17,03:00,0.541,0.795,0.524,0.976,0.680,0.339,0.576,0.549,�k�k��,6.3,�L
2022/05/17,03:10,0.541,0.798,0.522,0.973,0.683,0.338,0.575,0.547,�k�k��,6.1,�L
2022/05/17,03:20,0.540,0.794,0.521,0.969,0.678,0.338,0.574,0.547,�k�k��,6.5,�L
2022/05/17,03:30,0.538,0.790,0.520,0.966,0.676,0.338,0.573,0.546,�k�k��,7.0,�L
2022/05/17,03:40,0.540,0.792,0.522,0.966,0.679,0.338,0.573,0.545,�k�k��,6.6,�L
2022/05/17,03:50,0.540,0.793,0.521,0.968,0.678,0.338,0.574,0.546,�k�k��,6.2,��
2022/05/17,04:00,0.542,0.795,0.522,0.971,0.681,0.339,0.575,0.545,�k�k��,5.9,�L
2022/05/17,04:10,0.541,0.794,0.522,0.973,0.682,0.339,0.574,0.546,�k�k��,6.0,�L
2022/05/17,04:20,0.541,0.795,0.523,0.973,0.683,0.339,0.575,0.548,�k�k��,5.3,�L
2022/05/17,04:30,0.542,0.797,0.522,0.972,0.681,0.338,0.575,0.547,�k�k��,5.1,�L
2022/05/17,04:40,0.540,0.799,0.524,0.975,0.682,0.339,0.574,0.550,�k�k��,6.1,��
2022/05/17,04:50,0.543,0.798,0.523,0.974,0.683,0.339,0.575,0.547,�k,4.9,��
2022/05/17,05:00,0.542,0.800,0.522,0.976,0.682,0.338,0.575,0.549,�k,5.0,�L
2022/05/17,05:10,0.542,0.797,0.521,0.977,0.684,0.337,0.574,0.549,�k,5.1,��
2022/05/17,05:20,0.542,0.801,0.523,0.977,0.684,0.338,0.575,0.549,�k,5.6,��
2022/05/17,05:30,0.542,0.802,0.521,0.976,0.684,0.338,0.576,0.548,�k,5.8,�L
2022/05/17,05:40,0.543,0.800,0.521,0.978,0.684,0.337,0.576,0.548,�k,6.0,��
2022/05/17,05:50,0.541,0.801,0.522,0.980,0.685,0.337,0.576,0.550,�k,5.2,��
2022/05/17,06:00,0.543,0.802,0.522,0.979,0.686,0.337,0.576,0.550,�k�k��,6.5,��
2022/05/17,06:10,0.542,0.802,0.521,0.979,0.685,0.338,0.577,0.550,�k�k��,6.4,��
2022/05/17,06:20,0.542,0.802,0.522,0.980,0.686,0.336,0.577,0.550,�k�k��,5.3,��
2022/05/17,06:30,0.541,0.804,0.523,0.979,0.686,0.336,0.578,0.550,�k�k��,5.1,��
2022/05/17,06:40,0.542,0.803,0.522,0.979,0.687,0.338,0.576,0.550,�k�k��,4.5,��
2022/05/17,06:50,0.544,0.802,0.523,0.980,0.685,0.337,0.577,0.549,�k�k��,4.3,��
2022/05/17,07:00,0.542,0.803,0.523,0.981,0.689,0.337,0.578,0.549,�k�k��,3.8,��
2022/05/17,07:10,0.545,0.805,0.523,0.983,0.688,0.337,0.576,0.549,�k�k��,4.1,��
2022/05/17,07:20,0.542,0.802,0.523,0.982,0.688,0.337,0.578,0.550,�k�k��,3.5,��
2022/05/17,07:30,0.545,0.804,0.523,0.983,0.687,0.338,0.578,0.550,�k�k��,3.8,��
2022/05/17,07:40,0.544,0.804,0.522,0.981,0.688,0.337,0.578,0.550,�k,4.4,��
2022/05/17,07:50,0.544,0.803,0.524,0.983,0.688,0.338,0.577,0.550,�k�k��,4.7,��
2022/05/17,08:00,0.543,0.804,0.523,0.984,0.687,0.338,0.577,0.550,�k,4.7,��
2022/05/17,08:10,0.545,0.804,0.524,0.984,0.689,0.339,0.577,0.548,�k�k��,4.9,��
2022/05/17,08:20,0.545,0.804,0.523,0.982,0.688,0.339,0.580,0.549,�k,4.6,��
2022/05/17,08:30,0.545,0.804,0.523,0.983,0.690,0.339,0.577,0.551,�k,5.9,��
2022/05/17,08:40,0.545,0.804,0.524,0.984,0.689,0.336,0.578,0.549,�k,5.3,��
2022/05/17,08:50,0.544,0.805,0.523,0.986,0.689,0.339,0.577,0.549,�k,5.0,��
2022/05/17,09:00,0.546,0.805,0.522,0.985,0.688,0.337,0.577,0.550,�k,5.0,��
2022/05/17,09:10,0.545,0.805,0.525,0.988,0.688,0.338,0.578,0.549,�k�k��,5.3,��
2022/05/17,09:20,0.544,0.800,0.527,0.986,0.691,0.339,0.577,0.550,�k�k��,4.3,��
2022/05/17,09:30,0.544,0.804,0.526,0.987,0.688,0.337,0.579,0.549,�k�k��,5.1,��
2022/05/17,09:40,0.546,0.805,0.525,0.986,0.689,0.339,0.578,0.550,�k�k��,4.3,��
2022/05/17,09:50,0.546,0.805,0.526,0.987,0.692,0.338,0.577,0.549,�k,3.7,��
2022/05/17,10:00,0.544,0.803,0.526,0.987,0.690,0.338,0.580,0.550,�k�k��,3.7,��
2022/05/17,10:10,0.547,0.805,0.526,0.987,0.692,0.339,0.579,0.549,�k�k��,3.0,��
2022/05/17,10:20,0.544,0.803,0.525,0.988,0.692,0.338,0.579,0.549,�k,3.5,��
2022/05/17,10:30,0.546,0.805,0.526,0.991,0.689,0.339,0.580,0.551,�k,3.2,��
2022/05/17,10:40,0.546,0.808,0.526,0.988,0.693,0.339,0.578,0.550,�k,3.4,��
2022/05/17,10:50,0.546,0.805,0.528,0.990,0.693,0.338,0.579,0.551,�k,3.3,��
2022/05/17,11:00,0.547,0.806,0.525,0.989,0.692,0.338,0.579,0.549,�k,3.6,��
2022/05/17,11:10,0.545,0.807,0.525,0.988,0.693,0.339,0.579,0.552,�k,4.4,��
2022/05/17,11:20,0.545,0.807,0.524,0.988,0.693,0.340,0.579,0.550,�k,5.2,��
2022/05/17,11:30,0.548,0.811,0.526,0.990,0.692,0.338,0.579,0.551,�k,4.5,��
2022/05/17,11:40,0.546,0.808,0.527,0.990,0.692,0.338,0.580,0.549,�k,3.9,��
2022/05/17,11:50,0.547,0.809,0.526,0.988,0.694,0.337,0.579,0.551,�k,4.6,��
2022/05/17,12:00,0.545,0.810,0.525,0.991,0.693,0.337,0.578,0.550,�k,3.9,��
2022/05/17,12:10,0.546,0.808,0.527,0.991,0.692,0.339,0.580,0.551,�k,5.4,��
2022/05/17,12:20,0.547,0.811,0.527,0.989,0.694,0.340,0.580,0.549,�k,5.1,��
2022/05/17,12:30,0.546,0.812,0.527,0.990,0.694,0.338,0.581,0.549,�k,3.4,��
2022/05/17,12:40,0.549,0.809,0.527,0.992,0.694,0.337,0.581,0.552,�k�k��,3.8,��
2022/05/17,12:50,0.548,0.810,0.529,0.988,0.694,0.337,0.580,0.551,�k�k��,3.8,��
2022/05/17,13:00,0.548,0.809,0.526,0.991,0.694,0.338,0.580,0.551,�k�k��,3.9,��
2022/05/17,13:10,0.548,0.810,0.527,0.993,0.696,0.338,0.581,0.551,�k�k��,4.0,��
2022/05/17,13:20,0.548,0.809,0.527,0.991,0.694,0.339,0.580,0.552,�k�k��,3.4,��
2022/05/17,13:30,0.548,0.810,0.529,0.992,0.694,0.339,0.581,0.551,�k,3.0,��
2022/05/17,13:40,0.547,0.811,0.527,0.992,0.696,0.339,0.580,0.553,�k�k��,3.5,��
2022/05/17,13:50,0.547,0.810,0.529,0.992,0.695,0.338,0.581,0.552,�k�k��,3.2,��
2022/05/17,14:00,0.548,0.811,0.529,0.992,0.697,0.339,0.580,0.551,�k�k��,2.6,��
2022/05/17,14:10,0.549,0.809,0.529,0.992,0.697,0.339,0.581,0.551,�k�k��,3.1,��
2022/05/17,14:20,0.548,0.810,0.527,0.991,0.694,0.339,0.581,0.551,�k��,3.4,��
2022/05/17,14:30,0.548,0.811,0.528,0.993,0.696,0.339,0.583,0.550,�k�k��,3.8,��
2022/05/17,14:40,0.549,0.813,0.528,0.994,0.696,0.340,0.581,0.552,�k�k��,3.1,��
2022/05/17,14:50,0.551,0.812,0.527,0.990,0.698,0.340,0.582,0.551,�k,2.2,��
2022/05/17,15:00,0.551,0.810,0.530,0.992,0.698,0.339,0.580,0.551,�k�k��,3.0,��
2022/05/17,15:10,0.549,0.814,0.529,0.994,0.697,0.340,0.580,0.551,�k�k��,2.9,��
2022/05/17,15:20,0.550,0.813,0.529,0.992,0.698,0.340,0.583,0.553,�k�k��,2.0,��
2022/05/17,15:30,0.551,0.815,0.529,0.993,0.698,0.340,0.582,0.552,�k�k��,2.0,��
2022/05/17,15:40,0.551,0.813,0.529,0.993,0.697,0.339,0.581,0.552,�k��,2.6,��
2022/05/17,15:50,0.550,0.815,0.527,0.993,0.698,0.340,0.581,0.552,�k�k��,2.0,��
2022/05/17,16:00,0.553,0.815,0.528,0.993,0.698,0.340,0.582,0.552,�k�k��,1.2,��
2022/05/17,16:10,0.552,0.815,0.529,0.994,0.700,0.340,0.581,0.552,�k��,1.7,��
2022/05/17,16:20,0.551,0.816,0.529,0.995,0.698,0.340,0.581,0.554,���k��,1.7,��
2022/05/17,16:30,0.552,0.815,0.529,0.995,0.699,0.341,0.582,0.553,�k��,2.0,��
2022/05/17,16:40,0.550,0.814,0.530,0.996,0.699,0.339,0.583,0.553,���k��,1.9,��
2022/05/17,16:50,0.553,0.816,0.529,0.994,0.700,0.340,0.584,0.554,���k��,2.0,��
2022/05/17,17:00,0.555,0.816,0.530,0.994,0.700,0.340,0.583,0.553,�k�k��,1.5,��
2022/05/17,17:10,0.554,0.816,0.529,0.993,0.700,0.341,0.582,0.553,�k�k��,1.5,��
2022/05/17,17:20,0.553,0.816,0.528,0.993,0.697,0.341,0.582,0.553,�k�k��,1.9,��
2022/05/17,17:30,0.552,0.817,0.530,0.994,0.700,0.339,0.582,0.553,�k�k��,3.4,��
2022/05/17,17:40,0.553,0.817,0.530,0.995,0.700,0.340,0.583,0.552,�k�k��,3.8,��
2022/05/17,17:50,0.552,0.817,0.528,0.995,0.703,0.340,0.581,0.556,�k�k��,4.3,��
2022/05/17,18:00,0.551,0.817,0.530,0.993,0.700,0.341,0.583,0.553,�k�k��,3.8,��
2022/05/17,18:10,0.552,0.816,0.530,0.995,0.699,0.340,0.582,0.553,�k�k��,2.9,��
2022/05/17,18:20,0.552,0.819,0.529,0.993,0.700,0.341,0.582,0.555,�k,3.3,��
2022/05/17,18:30,0.554,0.817,0.527,0.994,0.699,0.341,0.581,0.554,�k�k��,2.8,��
2022/05/17,18:40,0.552,0.816,0.529,0.993,0.700,0.340,0.585,0.554,�k,3.4,��
2022/05/17,18:50,0.552,0.817,0.530,0.994,0.700,0.340,0.582,0.553,�k�k��,3.0,��
2022/05/17,19:00,0.551,0.816,0.528,0.995,0.701,0.339,0.584,0.553,�k�k��,2.8,��
2022/05/17,19:10,0.554,0.817,0.529,0.996,0.701,0.340,0.582,0.554,�k�k��,2.2,��
2022/05/17,19:20,0.553,0.817,0.530,0.995,0.702,0.340,0.583,0.553,�k,2.3,��
2022/05/17,19:30,0.550,0.816,0.528,0.994,0.700,0.340,0.584,0.556,�k,2.2,��
2022/05/17,19:40,0.551,0.817,0.529,0.994,0.699,0.340,0.584,0.554,�k�k��,1.7,��
2022/05/17,19:50,0.553,0.817,0.528,0.995,0.699,0.339,0.585,0.555,�k�k��,2.2,��
2022/05/17,20:00,0.555,0.818,0.527,0.995,0.700,0.340,0.583,0.554,�k�k��,2.0,��
2022/05/17,20:10,0.551,0.818,0.527,0.997,0.701,0.341,0.585,0.553,�k,1.4,��
2022/05/17,20:20,0.553,0.817,0.529,0.997,0.700,0.340,0.586,0.554,�k,1.7,��
2022/05/17,20:30,0.552,0.816,0.529,0.996,0.700,0.341,0.586,0.552,�k,1.7,��
2022/05/17,20:40,0.552,0.815,0.527,0.995,0.702,0.341,0.585,0.554,�k,1.7,��
2022/05/17,20:50,0.552,0.816,0.527,0.997,0.700,0.340,0.585,0.553,�k�k��,2.5,��
2022/05/17,21:00,0.553,0.816,0.528,0.996,0.701,0.340,0.583,0.553,�k�k��,2.3,��
2022/05/17,21:10,0.551,0.818,0.529,0.995,0.700,0.341,0.584,0.553,�k�k��,1.9,��
2022/05/17,21:20,0.554,0.816,0.529,0.994,0.701,0.340,0.585,0.555,�k�k��,2.5,��
2022/05/17,21:30,0.552,0.818,0.530,0.995,0.701,0.340,0.586,0.555,�k�k��,2.3,��
2022/05/17,21:40,0.552,0.817,0.530,0.995,0.701,0.342,0.584,0.554,�k��,1.2,��
2022/05/17,21:50,0.554,0.817,0.529,0.997,0.701,0.341,0.586,0.554,��,1.1,��
2022/05/17,22:00,0.553,0.816,0.529,0.996,0.702,0.340,0.585,0.554,�k��,0.8,��
2022/05/17,22:10,0.553,0.818,0.530,0.997,0.701,0.341,0.584,0.554,�k��,1.2,��
2022/05/17,22:20,0.553,0.817,0.530,0.996,0.703,0.341,0.585,0.554,�k��,1.4,��
2022/05/17,22:30,0.554,0.819,0.529,0.997,0.700,0.341,0.586,0.553,�k�k��,0.8,��
2022/05/17,22:40,0.554,0.818,0.529,0.997,0.702,0.342,0.583,0.553,-,CALM,��
2022/05/17,22:50,0.553,0.817,0.530,0.996,0.702,0.340,0.585,0.553,-,CALM,��
2022/05/17,23:00,0.552,0.817,0.530,0.997,0.702,0.341,0.585,0.553,���쐼,0.9,��
2022/05/17,23:10,0.554,0.818,0.528,0.997,0.701,0.340,0.584,0.554,��쐼,0.8,��
2022/05/17,23:20,0.553,0.819,0.529,0.997,0.702,0.342,0.586,0.556,���쐼,0.6,��
2022/05/17,23:30,0.554,0.817,0.530,0.997,0.703,0.341,0.585,0.556,-,CALM,��
2022/05/17,23:40,0.554,0.820,0.530,0.996,0.701,0.342,0.584,0.555,-,CALM,��
2022/05/17,23:50,0.553,0.819,0.528,0.995,0.702,0.341,0.585,0.554,��쐼,1.2,��
